Satellite: DO-64
Catalog number: 32789
Epoch time:      08219.91131365
Element set:    0130
Inclination:      097.9897 deg
RA of node:       279.6876 deg
Eccentricity:    0.0015105
Arg of perigee:   336.7911 deg
Mean anomaly:     023.2617 deg
Mean motion:   14.81442365 rev/day
Decay rate:       -3.1e-07 rev/day^2
Epoch rev:           01491
Checksum:              318

Satellite: SEEDS
Catalog number: 32791
Epoch time:      08219.24438952
Element set:    0112
Inclination:      097.9885 deg
RA of node:       279.0014 deg
Eccentricity:    0.0015869
Arg of perigee:   337.5003 deg
Mean anomaly:     022.5505 deg
Mean motion:   14.81298323 rev/day
Decay rate:        2.1e-07 rev/day^2
Epoch rev:           01478
Checksum:              295

Satellite: CANX-2
Catalog number: 32797
Epoch time:      08218.60726649
Element set:    0058
Inclination:      097.9941 deg
RA of node:       278.4755 deg
Eccentricity:    0.0015646
Arg of perigee:   346.4586 deg
Mean anomaly:     013.6197 deg
Mean motion:   14.81907328 rev/day
Decay rate:      1.601e-05 rev/day^2
Epoch rev:           01340
Checksum:              332

Satellite: RS-30
Catalog number: 32953
Epoch time:      08219.71614026
Element set:    0077
Inclination:      082.5001 deg
RA of node:       092.1723 deg
Eccentricity:    0.0019106
Arg of perigee:   141.4712 deg
Mean anomaly:     218.7735 deg
Mean motion:   12.42996797 rev/day
Decay rate:        1.0e-07 rev/day^2
Epoch rev:           00932
Checksum:              278

/EX






More information about the Keps mailing list